Regional Weather Roundup
Issued by NWS

Home | Current Version | Previous Version | Graphics & Text | Print | Product List | Glossary Off
Versions: 1 2 3 4 5 6 7 8 9 10 11 12 13 14 15 16 17 18 19 20 21 22 23 24 25 26 27 28 29 30 31 32 33 34 35 36 37 38 39 40 41 42 43 44 45 46 47 48 49 50

000
ASUS43 KMKX 261111
RWRWI

WISCONSIN REGIONAL WEATHER ROUNDUP
NATIONAL WEATHER SERVICE MILWAUKEE/SULLIVAN WI
500 AM CST WED NOV 26 2014

NOTE: "FAIR" INDICATES FEW OR NO CLOUDS BELOW 12,000 FEET WITH NO
SIGNIFICANT WEATHER AND/OR OBSTRUCTIONS TO VISIBILITY.

WIZ001-002-006>008-014>016-023>028-261200-
NORTHWEST WISCONSIN

CITY           SKY/WX    TMP DP  RH WIND       PRES   REMARKS
SUPERIOR ARPT  CLOUDY    19  16  88 CALM      30.13R
ASHLAND        LGT SNOW  19  16  88 CALM      30.13S FOG
HAYWARD        CLOUDY    20  15  81 CALM      30.08S
SIREN          CLOUDY    22  17  81 CALM      30.09R
CUMBERLAND     CLOUDY    21  16  79 E3        30.06S
RICE LAKE      CLOUDY    22  17  81 E5        30.09S WCI  16
CHETEK         CLOUDY    22  17  83 E5        30.08S WCI  15
LADYSMITH      CLOUDY    22  18  85 E5        30.09S WCI  15
EAU CLAIRE     CLOUDY    20  15  81 NE5       30.08R WCI  13
MENOMONIE      CLOUDY    22  17  81 E5        30.08R WCI  16
NEW RICHMOND   CLOUDY    22  15  75 E8        30.06S WCI  13
OSCEOLA        CLOUDY    24  17  74 E7        30.09S WCI  16
$$

WIZ003>005-009-010-017-018-261200-
NORTH CENTRAL WISCONSIN

CITY           SKY/WX    TMP DP  RH WIND       PRES   REMARKS
MANITOWISH WTR CLOUDY    14  13  95 CALM      30.06S
ARBOR VITAE    CLOUDY    17  14  90 CALM      30.06S
WOODRUFF       CLOUDY    17  14  90 CALM      30.06S
RHINELANDER    CLOUDY    11   9  92 CALM      30.07S
EAGLE RIVER    CLOUDY    11   8  85 CALM      30.06F
LAND O LAKES   CLOUDY     7   4  88 CALM      30.07F
PHILLIPS       CLOUDY    17  14  88 CALM      30.06S
TOMAHAWK       CLOUDY    15  13  91 CALM      30.08S
MEDFORD        CLOUDY    17  14  88 CALM      30.06S
MERRILL        CLOUDY    15  13  93 CALM      30.07F
$$

WIZ029-030-035-036-043>047-261200-
CENTRAL WISCONSIN

CITY           SKY/WX    TMP DP  RH WIND       PRES   REMARKS
WAUSAU         CLOUDY    16  13  88 E8        30.08F WCI   5
MOSINEE        CLOUDY    16  16 100 E5        30.10S WCI   9
MARSHFIELD     CLOUDY    18  14  84 E5        30.08R WCI  11
STEVENS POINT  CLOUDY    12  10  92 CALM      30.11S
WAUPACA        PTCLDY    11   7  85 CALM      30.15F
WAUTOMA        CLOUDY     5   2  88 CALM      30.13F
WISC RAPIDS    CLOUDY    15  11  83 E7        30.11F WCI   5
CAMP DOUGLAS   PTCLDY    12  12  99 E2        30.09F
$$

WIZ011>013-019>022-031-037>040-048>050-261200-
NORTHEAST WISCONSIN

CITY           SKY/WX    TMP DP  RH WIND       PRES   REMARKS
ANTIGO         CLOUDY    14  12  93 CALM      30.08S
SHAWANO        CLOUDY    17  14  89 CALM      30.16R
OCONTO         MOCLDY     6   4  94 CALM      30.16S
STURGEON BAY   PTCLDY    19  12  73 SW5       30.15F WCI  13
GREEN BAY      PTCLDY    14  11  87 SE6       30.14F WCI   5
MANITOWOC      MOCLDY    17  15  92 CALM      30.16F
APPLETON       NOT AVBL
CLINTONVILLE   CLOUDY    14  12  92 CALM      30.15S
OSHKOSH        CLOUDY    15  12  88 CALM      30.14S
$$

WIZ032>034-041-042-053>061-261200-
SOUTHWEST WISCONSIN

CITY           SKY/WX    TMP DP  RH WIND       PRES   REMARKS
LA CROSSE      MOCLDY    19  14  81 E5        30.08S WCI  12
SPARTA         PTCLDY    14  13  95 CALM      30.10R
VIROQUA        MOCLDY    14  14 100 SE7       30.04S WCI   4
BOSCOBEL       PTCLDY    12   7  80 CALM      30.10F
PRAIRIE DU CHI MOCLDY    16  13  86 E5        30.08S WCI   9
PLATTEVILLE    PTCLDY    13  11  92 CALM      30.08S
$$

WIZ056-057-062-063-064-067-068-261200-
SOUTH CENTRAL WISCONSIN

CITY           SKY/WX    TMP DP  RH WIND       PRES   REMARKS
REEDSBURG      MOCLDY   N/A N/A N/A E3        30.09F
BARABOO/DELLS  MOCLDY    11   8  91 CALM      30.09F
LONE ROCK      MOCLDY    13   6  74 E5        30.11F WCI   5
MINERAL POINT  PTCLDY    16  14  93 SE7       30.06F FOG     WCI   6
MADISON        PTCLDY    11   8  88 E5        30.12F WCI   3
MIDDLETON      PTCLDY     8   4  84 CALM      30.12F
WATERTOWN      PTCLDY     8   6  92 CALM      30.13F
MONROE         FOG       12  10  92 E5        30.09F VSB 1/2 WCI   4
JANESVILLE     CLOUDY    12   9  85 CALM      30.13F FOG
$$

WIZ051-052-058>065-066-070>072-261200-
SOUTHEAST WISCONSIN

CITY           SKY/WX    TMP DP  RH WIND       PRES   REMARKS
MILWAUKEE      PTCLDY    16  12  84 CALM      30.15S
WAUKESHA       PTCLDY     9   7  92 CALM      30.14F FOG
MILWAUKEE/TIMM PTCLDY    16  12  86 CALM      30.15F FOG
RACINE         CLOUDY    14  10  84 NW5       30.17R WCI   6
BURLINGTON     CLOUDY    12  11  94 CALM      30.15R FOG
KENOSHA        CLEAR     10   8  92 N5        30.15R FOG     WCI   2
FOND DU LAC    PTCLDY    12   8  84 CALM      30.14F
SHEBOYGAN      CLOUDY    20  15  81 N3        30.15F
WEST BEND      CLOUDY    19  14  79 CALM      30.14F
JUNEAU         PTCLDY    11   9  92 E5        30.13F FOG     WCI   3
$$

LSZ147-162-261200-
LAKE SUPERIOR

STATION/POSITION TIME  TEMP    WIND        PRES    WAVE
                       AIR SEA DIR/SP/G            HT/PER
                 (UTC) (F)     (DEG/KT/KT) (MB)    (FT/S)
DEVILS ISLAND    1100   26     330/  4/  5 1020.8F
PORT WING        1000   20     140/  2/  3 1020.0F
SAXON HARBOR     1000   19      CALM  /  6 1020.0F
$$

LMZ867-665-643>646-261200-
LAKE MICHIGAN

STATION/POSITION TIME  TEMP    WIND        PRES    WAVE
                       AIR SEA DIR/SP/G            HT/PER
                 (UTC) (F)     (DEG/KT/KT) (MB)    (FT/S)
CHAMBERS ISLAND  1000   22     140/  3/  5 1021.7F
N MID LAKE BUOY  1050   29 42  230/  4/  8 1021.7F   1/ 3
NORTHPORT PIER   1106   22     280/  4/  5 1021.0F
SISTER BAY       0928             CALM       N/A
ALGOMA LAKESHORE 0958             CALM       N/A
KEWAUNEE LAKESHO 1000   20      CALM  /  2 1020.9F
SHEBOYGAN LAKESH 1100   21 36  310/  6/  7 1022.3F
PORT WASHINGTON  1000   20     280/  3/  7 1022.4F
MILWAUKEE LAKESH 1000   20     270/  4/  5   N/A
S MID LAKE BUOY  1050   28 42     CALM     1021.8F   1/ 3
KENOSHA   LAKESH 1100   18     280/  5/  7 1021.0S
$$

TC  - TEMPERATURE IN CELSIUS
VSB - VISIBILITY IN STATUTE MILES
WCI - WIND CHILL INDEX
HX  - HEAT INDEX




USA.gov is the U.S. government's official web portal to all federal, state and local government web resources and services.